KC7NGC-B Weather Reports


time (UTC)temp
F
wind
direction
speed
knots
gust
knots
rain 1hr
in
rain 24hr
in
rain mn
in
humidity
%
barometer
mb
20260506181656 72 199 5.2 7.8 0.00 0.00 0.00 48 1015.3
20260506180634 72 213 7.0 13.0 0.00 0.00 0.00 49 1015.3
20260506175634 71 196 9.6 13.9 0.00 0.00 0.00 49 1015.2
20260506174634 71 214 11.3 17.4 0.00 0.00 0.00 48 1015.3
20260506173627 70 190 6.1 11.3 0.00 0.00 0.00 49 1015.2
20260506172626 70 193 9.6 11.3 0.00 0.00 0.00 49 1015.4
20260506171627 70 225 7.8 12.2 0.00 0.00 0.00 51 1015.7
20260506170626 69 195 6.1 9.6 0.00 0.00 0.00 53 1015.7
20260506165620 68 192 8.7 15.6 0.00 0.00 0.00 54 1015.8
20260506164658 68 201 7.0 11.3 0.00 0.00 0.00 55 1015.7
20260506163637 67 215 7.0 10.4 0.00 0.00 0.00 57 1015.9
20260506162636 67 217 11.3 15.6 0.00 0.00 0.00 56 1015.8
20260506161630 66 206 7.8 12.2 0.00 0.00 0.00 58 1015.8
20260506160631 65 206 13.9 16.5 0.00 0.00 0.00 60 1015.8
20260506155630 64 192 8.7 14.8 0.00 0.00 0.00 62 1015.6
20260506154627 64 194 7.8 11.3 0.00 0.00 0.00 62 1015.8
20260506153642 64 197 7.8 11.3 0.00 0.00 0.00 61 1015.7
20260506152624 64 198 7.8 11.3 0.00 0.00 0.00 62 1015.5
20260506151640 64 198 9.6 14.8 0.00 0.00 0.00 61 1015.5
20260506150638 63 201 8.7 13.0 0.00 0.00 0.00 63 1015.6
20260506145633 62 197 7.0 11.3 0.00 0.00 0.00 65 1015.4
20260506144635 62 199 8.7 10.4 0.00 0.00 0.00 66 1015.4
20260506143630 63 203 5.2 9.6 0.00 0.00 0.00 63 1015.4
20260506142632 65 193 7.0 8.7 0.00 0.00 0.00 54 1015.3
20260506141647 67 221 8.7 10.4 0.00 0.00 0.00 49 1015.2
20260506140641 67 246 4.3 11.3 0.00 0.00 0.00 46 1015.1
20260506135619 68 218 7.0 8.7 0.00 0.00 0.00 44 1015.1
20260506134639 68 247 4.3 6.1 0.00 0.00 0.00 43 1014.8
20260506133639 68 222 4.3 7.0 0.00 0.00 0.00 43 1014.7
20260506132632 67 235 4.3 8.7 0.00 0.00 0.00 44 1014.6
20260506131711 67 259 4.3 6.1 0.00 0.00 0.00 45 1014.5
20260506130631 66 234 6.1 9.6 0.00 0.00 0.00 45 1014.5
20260506125628 67 245 6.1 9.6 0.00 0.00 0.00 44 1014.2
20260506124622 67 253 7.8 10.4 0.00 0.00 0.00 44 1014.2
20260506123628 66 218 5.2 7.8 0.00 0.00 0.00 46 1014.2
20260506122623 66 225 5.2 8.7 0.00 0.00 0.00 46 1014.1
20260506121637 66 237 5.2 8.7 0.00 0.00 0.00 46 1014.1
20260506120655 67 236 5.2 7.8 0.00 0.00 0.00 45 1013.9
20260506115658 66 272 5.2 7.8 0.00 0.00 0.00 46 1013.9
20260506114633 66 232 6.1 8.7 0.00 0.00 0.00 48 1013.9
20260506113629 65 242 4.3 7.8 0.00 0.00 0.00 49 1013.5
20260506112626 65 256 3.5 5.2 0.00 0.00 0.00 49 1013.7
20260506111639 64 238 3.5 6.1 0.00 0.00 0.00 55 1013.7
20260506110647 60 266 1.7 2.6 0.00 0.00 0.00 64 1013.7
20260506105645 63 240 1.7 2.6 0.00 0.00 0.00 60 1013.6
20260506104642 62 205 0.0 1.7 0.00 0.00 0.00 61 1013.5
20260506103718 60 189 1.7 1.7 0.00 0.00 0.00 68 1013.4
20260506102633 61 329 2.6 3.5 0.00 0.00 0.00 65 1013.4
20260506101635 62 14 0.9 2.6 0.00 0.00 0.00 63 1013.2
20260506100627 62 209 0.9 1.7 0.00 0.00 0.00 65 1013.4
20260506095629 62 0.0 1.7 0.00 0.00 0.00 65 1013.3
20260506094629 65 120 0.9 1.7 0.00 0.00 0.00 56 1013.2
20260506093621 66 169 1.7 2.6 0.00 0.00 0.00 51 1013.2
20260506092626 66 349 1.7 3.5 0.00 0.00 0.00 53 1013.4
20260506091638 70 223 3.5 6.1 0.00 0.00 0.00 45 1012.9
20260506090638 69 237 5.2 7.8 0.00 0.00 0.00 48 1013.0
20260506085632 68 286 6.1 7.8 0.00 0.00 0.00 47 1013.2
20260506084633 70 286 4.3 5.2 0.00 0.00 0.00 45 1013.2
20260506083628 70 316 7.8 9.6 0.00 0.00 0.00 42 1013.0
20260506082630 71 297 2.6 5.2 0.00 0.00 0.00 41 1012.9
20260506081628 70 256 3.5 5.2 0.00 0.00 0.00 44 1012.8
20260506080624 71 246 4.3 5.2 0.00 0.00 0.00 43 1012.8
20260506072636 72 258 3.5 4.3 0.00 0.00 0.00 39 1012.7
20260506071629 73 320 1.7 2.6 0.00 0.00 0.00 38 1012.7
20260506070654 72 188 0.9 1.7 0.00 0.00 0.00 38 1012.6
20260506061641 73 215 2.6 3.5 0.00 0.00 0.00 39 1012.5
20260506060719 73 193 0.9 2.6 0.00 0.00 0.00 39 1012.5
20260506050624 74 212 5.2 7.8 0.00 0.00 0.00 37 1012.2
20260506044637 75 180 4.3 6.1 0.00 0.00 0.00 36 1012.3
20260506043633 74 209 4.3 8.7 0.00 0.00 0.00 38 1012.3
20260506042716 74 211 2.6 4.3 0.00 0.00 0.00 37 1012.3
20260506041628 75 208 3.5 4.3 0.00 0.00 0.00 36 1012.2
20260506040633 75 218 3.5 5.2 0.00 0.00 0.00 34 1012.2
20260506035623 76 218 3.5 5.2 0.00 0.00 0.00 32 1012.0
20260506034626 76 224 2.6 3.5 0.00 0.00 0.00 32 1012.0
20260506033623 75 209 1.7 2.6 0.00 0.00 0.00 33 1011.8
20260506032619 75 161 1.7 2.6 0.00 0.00 0.00 33 1011.9
20260506031722 76 227 0.9 1.7 0.00 0.00 0.00 34 1011.7
20260506030635 77 0.0 0.9 0.00 0.00 0.00 33 1011.8
20260506025633 79 217 1.7 1.7 0.00 0.00 0.00 33 1011.5
20260506024633 79 0.0 0.9 0.00 0.00 0.00 27 1011.5
20260506023642 80 21 1.7 1.7 0.00 0.00 0.00 27 1011.5
20260506022636 80 52 2.6 2.6 0.00 0.00 0.00 26 1011.5
20260506021624 81 66 2.6 3.5 0.00 0.00 0.00 26 1011.5
20260506020624 81 28 1.7 3.5 0.00 0.00 0.00 27 1011.7
20260506015622 82 87 0.9 1.7 0.00 0.00 0.00 25 1011.6
20260506014647 82 56 2.6 3.5 0.00 0.00 0.00 26 1011.5
20260506013656 82 29 3.5 4.3 0.00 0.00 0.00 25 1011.5
20260506012633 82 20 4.3 5.2 0.00 0.00 0.00 24 1011.5
20260506011634 82 15 5.2 7.0 0.00 0.00 0.00 24 1011.5
20260506010626 83 9 6.1 7.8 0.00 0.00 0.00 24 1011.5
20260506005647 82 24 2.6 3.5 0.00 0.00 0.00 24 1011.6
20260506004645 82 24 4.3 5.2 0.00 0.00 0.00 25 1011.8
20260506003624 83 16 5.2 7.0 0.00 0.00 0.00 24 1011.7
20260506002618 82 34 3.5 7.0 0.00 0.00 0.00 25 1011.8
20260506001635 82 42 6.1 7.8 0.00 0.00 0.00 25 1011.7
20260506000635 82 43 3.5 5.2 0.00 0.00 0.00 26 1011.8
20260505235632 83 44 6.1 8.7 0.00 0.00 0.00 24 1011.9
20260505234631 82 38 4.3 6.1 0.00 0.00 0.00 27 1012.0
20260505233629 82 326 2.6 3.5 0.00 0.00 0.00 27 1012.1
20260505232627 82 294 1.7 5.2 0.00 0.00 0.00 26 1012.1
20260505231625 82 23 4.3 5.2 0.00 0.00 0.00 25 1012.3
20260505230619 82 29 5.2 7.0 0.00 0.00 0.00 27 1012.3
20260505225617 82 25 7.8 13.0 0.00 0.00 0.00 27 1012.4
20260505224640 82 33 4.3 7.0 0.00 0.00 0.00 27 1012.5
20260505223658 81 54 5.2 11.3 0.00 0.00 0.00 28 1012.7
20260505222630 81 81 5.2 7.0 0.00 0.00 0.00 29 1012.6
20260505221631 82 51 7.0 8.7 0.00 0.00 0.00 28 1012.6
20260505220628 81 27 6.1 9.6 0.00 0.00 0.00 29 1012.8
20260505215630 82 36 7.0 10.4 0.00 0.00 0.00 29 1012.7
20260505214626 81 63 6.1 7.8 0.00 0.00 0.00 29 1012.9
20260505213620 81 65 7.8 12.2 0.00 0.00 0.00 29 1013.0
20260505212619 80 45 5.2 10.4 0.00 0.00 0.00 30 1013.2
20260505211636 81 39 7.8 9.6 0.00 0.00 0.00 30 1013.0
20260505210639 80 70 6.1 8.7 0.00 0.00 0.00 30 1013.1
20260505205634 80 46 6.1 11.3 0.00 0.00 0.00 31 1013.3
20260505204634 80 70 5.2 6.1 0.00 0.00 0.00 32 1013.4
20260505203626 79 66 4.3 6.1 0.00 0.00 0.00 33 1013.4
20260505202627 79 40 7.8 12.2 0.00 0.00 0.00 33 1013.5
20260505201625 80 359 5.2 7.8 0.00 0.00 0.00 31 1013.6
20260505200619 79 14 6.1 7.8 0.00 0.00 0.00 30 1013.5
20260505195620 80 354 9.6 13.0 0.00 0.00 0.00 30 1013.4
20260505194638 78 5 7.8 11.3 0.00 0.00 0.00 33 1013.7
20260505193634 78 18 9.6 13.9 0.00 0.00 0.00 33 1013.5
20260505192640 77 14 4.3 7.0 0.00 0.00 0.00 35 1013.7
20260505191649 76 29 5.2 10.4 0.00 0.00 0.00 36 1013.5
20260505190626 76 6 10.4 13.9 0.00 0.00 0.00 35 1013.8
20260505185631 76 26 7.8 11.3 0.00 0.00 0.00 36 1013.8
20260505184622 75 13 7.8 13.0 0.00 0.00 0.00 37 1013.6
20260505183620 75 13 10.4 13.0 0.00 0.00 0.00 36 1013.7
20260505182622 74 2 5.2 7.8 0.00 0.00 0.00 37 1013.7